Flag for U.S.A. Weather past 2 weeks in Cape Coral, Florida, U.S.A.

Now
65 °F

Light rain. Overcast.


Feels Like: 65 °F
Forecast: 59 / 73 °F
Wind: 6 mph from North

Location: Page Field

Current Time: Feb 26, 2015 at 7:44:19 PM

Latest Report: Feb 26, 2015 at 6:53 PM


Visibility: 7 mi

Pressure: 29.95 "Hg

Humidity: 97%

Dew point: 64 °F

Location of Cape CoralLocation

Historic Weather in Cape Coral — Graph

°F

Cape Coral temperature yesterday

Maximum temperature yesterday: 81 °F (at 1:53 PM)
Minimum temperature yesterday: 64 °F (at 6:53 AM)
Average temperature yesterday: 71 °F

Past Weeks' High & Low Weather Summary

 TemperatureHumidityPressure
High84 °F (Feb 22, 1:53 PM)100% (Feb 23, 3:53 AM)30.39 "Hg (Feb 23, 3:53 AM)
Low35 °F (Feb 20, 6:53 AM)12% (Feb 20, 12:53 PM)29.76 "Hg (Feb 26, 5:04 AM)
Average62 °F72%30.11 "Hg
* Reported Feb 11 5:53 PM — Feb 26 5:53 PM, Cape Coral, Weather by CustomWeather, © 2015

Note: Actual official high and low records may vary slightly from our data, if they occured in-between our weather recording intervals... More about our weather records

Advertising

Cape Coral weather history for previous 24 hours

 ConditionsComfort  
Time TempWeatherWind HumidityBarometerVisibility
5:53 PM
Thu, Feb 26
65 °FOvercast.6 mph94%29.93 "Hg10 mi
5:00 PM67 °FMostly cloudy.9 mph93%29.90 "Hg8 mi
4:00 PM69 °FCloudy.9 mph93%29.88 "Hg8 mi
2:53 PM73 °FBroken clouds.6 mph76%29.87 "Hg10 mi
1:53 PM71 °FOvercast.7 mph84%29.88 "Hg10 mi
12:53 PM70 °FLight rain. Overcast.3 mph84%29.88 "Hg9 mi
11:53 AM70 °FOvercast.6 mph84%29.89 "Hg10 mi
10:53 AM70 °FLow clouds.9 mph90%29.88 "Hg9 mi
9:53 AM71 °FFog.10 mph93%29.87 "Hg5 mi
8:53 AM71 °FFog.13 mph93%29.85 "Hg5 mi
7:53 AM70 °FFog.12 mph93%29.84 "Hg5 mi
6:53 AM71 °FLow clouds.9 mph90%29.83 "Hg8 mi
5:53 AM71 °FPassing clouds.16 mph93%29.77 "Hg9 mi
5:04 AM71 °FPassing clouds.12 mph93%29.76 "Hg8 mi
4:53 AM71 °FPassing clouds.13 mph93%29.76 "Hg8 mi
4:03 AM70 °FPassing clouds.13 mph97%29.77 "Hg8 mi
2:53 AM71 °FPassing clouds.12 mph93%29.79 "Hg8 mi
1:53 AM71 °FPassing clouds.17 mph96%29.77 "Hg7 mi
12:53 AM72 °FLow clouds.16 mph97%29.80 "Hg7 mi
11:53 PM
Wed, Feb 25
73 °FLow clouds.20 mph94%29.80 "Hg8 mi
10:53 PM72 °FLow clouds.14 mph93%29.81 "Hg9 mi
9:53 PM72 °FLow clouds.16 mph93%29.82 "Hg10 mi
8:53 PM72 °FPassing clouds.15 mph93%29.82 "Hg10 mi
7:53 PM73 °FPassing clouds.12 mph88%29.82 "Hg10 mi
Weather by CustomWeather, © 2015

See weather overviewHow to use our weather pages